Location: Newark
(39.5667°N, 8.9833°E)
Time: 20:17:40
(UTC+00:00)

Transit 2A - Pass Details

Date: 25 October 2019
Orbit: 601 x 957 km, 66.7° (Epoch: 20 November)

Event Time Altitude Azimuth Distance (km) Brightness Sun altitude
Rises 02:49:15 0° 328° (NNW) 2,872 - -34.2°
Reaches altitude 10° 02:51:31 10° 326° (NW) 1,952 - -33.8°
Maximum altitude 02:55:49 66° 244° (WSW) 659 - -33.0°
Drops below altitude 10° 03:00:10 10° 162° (SSE) 1,973 - -32.1°
Sets 03:02:28 0° 160° (SSE) 2,905 - -31.7°
